SWR52Y LSZH-LOWI

Flight info

Callsign SWR52Y
Flight time 0h 40m
Altitude 17000
Route DEGES Z2 OSDOV M738 MADEB MADEB1B
Aircraft B463/M-SDFGIRWY/LB1

Departure

Time 2026-05-06 17:52
Airport Zürich Airport (LSZH)

Arrival

Time 2026-05-06 18:32
Airport Innsbruck Airport (LOWI)
Time Latitude Longitude Altitude Speed Heading
2026-05-06 17:43 47.45595 8.55589 1397 ft 0 kts
2026-05-06 17:49 47.45616 8.55592 1400 ft 7 kts 11°
2026-05-06 17:50 47.45652 8.55695 1399 ft 15 kts 95°
2026-05-06 17:50 47.45640 8.55846 1397 ft 18 kts 97°
2026-05-06 17:50 47.45619 8.56135 1397 ft 38 kts 96°
2026-05-06 17:50 47.45586 8.56596 1399 ft 51 kts 96°
2026-05-06 17:51 47.45583 8.57007 1405 ft 28 kts 35°
2026-05-06 17:51 47.45668 8.56913 1406 ft 29 kts 276°
2026-05-06 17:51 47.45714 8.56250 1402 ft 100 kts 276°
2026-05-06 17:51 47.45806 8.54939 1425 ft 150 kts 276°
2026-05-06 17:52 47.45884 8.53574 1953 ft 124 kts 269°
2026-05-06 17:52 47.45903 8.52224 2456 ft 141 kts 271°
2026-05-06 17:52 47.45909 8.50752 2833 ft 168 kts 263°
2026-05-06 17:52 47.45572 8.48989 3444 ft 190 kts 250°
2026-05-06 17:53 47.45049 8.47124 4231 ft 205 kts 238°
2026-05-06 17:53 47.44083 8.45533 5131 ft 216 kts 231°
2026-05-06 17:53 47.43197 8.43753 6165 ft 216 kts 243°
2026-05-06 17:53 47.42395 8.41856 7044 ft 225 kts 223°
2026-05-06 17:54 47.40936 8.41008 7990 ft 237 kts 184°
2026-05-06 17:54 47.39352 8.41696 8921 ft 253 kts 150°
2026-05-06 17:54 47.38196 8.43682 9817 ft 268 kts 118°
2026-05-06 17:54 47.37865 8.46401 10667 ft 279 kts 86°
2026-05-06 17:55 47.38478 8.49088 11455 ft 286 kts 56°
2026-05-06 17:55 47.39874 8.51056 12237 ft 288 kts 26°
2026-05-06 17:55 47.41743 8.52194 13013 ft 290 kts 19°
2026-05-06 17:55 47.43589 8.53434 13614 ft 304 kts 27°
2026-05-06 17:56 47.45357 8.55227 13965 ft 322 kts 46°
2026-05-06 17:56 47.46532 8.58088 14171 ft 337 kts 75°
2026-05-06 17:56 47.46809 8.61167 14355 ft 346 kts 94°
2026-05-06 17:56 47.46683 8.64759 14552 ft 359 kts 96°
2026-05-06 17:57 47.46465 8.68486 14742 ft 367 kts 103°
2026-05-06 17:57 47.46126 8.72239 15132 ft 372 kts 92°
2026-05-06 17:57 47.46285 8.75775 15538 ft 375 kts 86°
2026-05-06 17:57 47.46530 8.79727 16029 ft 375 kts 89°
2026-05-06 17:58 47.46455 8.83575 16452 ft 375 kts 98°
2026-05-06 17:58 47.46220 8.86214 16697 ft 378 kts 101°
2026-05-06 17:58 47.45749 8.90077 16849 ft 387 kts 104°
2026-05-06 17:58 47.45186 8.94027 16905 ft 399 kts 104°
2026-05-06 17:59 47.44588 8.98066 16904 ft 396 kts 105°
2026-05-06 17:59 47.44073 9.01481 16899 ft 383 kts 105°
2026-05-06 17:59 47.43488 9.05317 16893 ft 383 kts 105°
2026-05-06 17:59 47.42909 9.09155 16895 ft 384 kts 105°
2026-05-06 18:00 47.42348 9.13019 16892 ft 385 kts 104°
2026-05-06 18:00 47.41897 9.16841 16892 ft 386 kts 98°
2026-05-06 18:00 47.41803 9.20781 16892 ft 390 kts 91°
2026-05-06 18:00 47.41853 9.22160 16893 ft 391 kts 88°
2026-05-06 18:01 47.42021 9.24532 16895 ft 393 kts 85°
2026-05-06 18:01 47.42391 9.27886 16900 ft 395 kts 82°
2026-05-06 18:01 47.42947 9.31789 16902 ft 396 kts 79°
2026-05-06 18:01 47.43424 9.34863 16901 ft 397 kts 79°
2026-05-06 18:02 47.44060 9.38832 16895 ft 398 kts 79°
2026-05-06 18:02 47.44699 9.42761 16889 ft 398 kts 79°
2026-05-06 18:02 47.45335 9.46796 16883 ft 398 kts 79°
2026-05-06 18:02 47.45932 9.50647 16889 ft 398 kts 79°
2026-05-06 18:03 47.46539 9.54582 16884 ft 397 kts 80°
2026-05-06 18:03 47.46990 9.58254 16886 ft 394 kts 85°
2026-05-06 18:03 47.47158 9.62274 16884 ft 391 kts 92°
2026-05-06 18:03 47.47098 9.66318 16683 ft 395 kts 96°
2026-05-06 18:04 47.46908 9.70349 16428 ft 392 kts 98°
2026-05-06 18:04 47.46670 9.74348 16173 ft 390 kts 99°
2026-05-06 18:04 47.46412 9.78338 15932 ft 389 kts 99°
2026-05-06 18:04 47.46164 9.82116 15692 ft 383 kts 99°
2026-05-06 18:05 47.45932 9.85960 15425 ft 368 kts 98°
2026-05-06 18:05 47.45710 9.89688 15163 ft 362 kts 98°
2026-05-06 18:05 47.45491 9.93396 14990 ft 362 kts 98°
2026-05-06 18:05 47.45270 9.97094 14932 ft 361 kts 98°
2026-05-06 18:06 47.45055 10.00796 14887 ft 361 kts 98°
2026-05-06 18:06 47.44858 10.04497 14897 ft 361 kts 98°
2026-05-06 18:06 47.44647 10.08181 14897 ft 360 kts 98°
2026-05-06 18:06 47.44429 10.11875 14895 ft 362 kts 98°
2026-05-06 18:07 47.44044 10.15532 14910 ft 357 kts 112°
2026-05-06 18:07 47.42797 10.18596 14940 ft 346 kts 137°
2026-05-06 18:07 47.41004 10.20945 14944 ft 344 kts 146°
2026-05-06 18:07 47.39082 10.23031 14942 ft 341 kts 149°
2026-05-06 18:08 47.37098 10.24939 14923 ft 340 kts 151°
2026-05-06 18:08 47.35242 10.27120 14912 ft 348 kts 132°
2026-05-06 18:08 47.34165 10.30304 14938 ft 361 kts 107°
2026-05-06 18:08 47.34022 10.34043 14758 ft 374 kts 87°
2026-05-06 18:09 47.34333 10.37902 14565 ft 383 kts 85°
2026-05-06 18:09 47.34669 10.41783 14365 ft 381 kts 85°
2026-05-06 18:09 47.35042 10.45649 14127 ft 381 kts 84°
2026-05-06 18:09 47.35440 10.49494 13958 ft 377 kts 84°
2026-05-06 18:10 47.35854 10.53296 13827 ft 374 kts 84°
2026-05-06 18:10 47.36273 10.57090 13834 ft 375 kts 83°
2026-05-06 18:10 47.36690 10.60883 13797 ft 376 kts 84°
2026-05-06 18:10 47.37110 10.64678 13842 ft 375 kts 84°
2026-05-06 18:11 47.37535 10.68486 13867 ft 377 kts 84°
2026-05-06 18:11 47.37959 10.72315 13834 ft 379 kts 84°
2026-05-06 18:11 47.38386 10.76159 13851 ft 381 kts 84°
2026-05-06 18:11 47.38817 10.80012 13768 ft 380 kts 83°
2026-05-06 18:12 47.39238 10.83861 13806 ft 380 kts 84°
2026-05-06 18:12 47.39659 10.87711 13765 ft 379 kts 84°
2026-05-06 18:12 47.40086 10.91554 13780 ft 379 kts 84°
2026-05-06 18:12 47.40505 10.95401 13816 ft 380 kts 84°
2026-05-06 18:13 47.40924 10.99264 13846 ft 382 kts 84°
2026-05-06 18:13 47.41338 11.03100 13870 ft 384 kts 83°
2026-05-06 18:13 47.41760 11.07059 13865 ft 387 kts 84°
2026-05-06 18:13 47.42173 11.10944 13578 ft 386 kts 84°
2026-05-06 18:14 47.42591 11.14842 13251 ft 384 kts 84°
2026-05-06 18:14 47.43011 11.18706 12995 ft 380 kts 83°
2026-05-06 18:14 47.43421 11.22563 12720 ft 381 kts 84°
2026-05-06 18:14 47.43806 11.26399 12364 ft 374 kts 84°
2026-05-06 18:15 47.44191 11.30185 12042 ft 372 kts 83°
2026-05-06 18:15 47.44567 11.33955 11724 ft 369 kts 83°
2026-05-06 18:15 47.44940 11.37698 11513 ft 367 kts 83°
2026-05-06 18:15 47.45297 11.41388 11261 ft 358 kts 84°
2026-05-06 18:16 47.45654 11.44969 11037 ft 345 kts 83°
2026-05-06 18:16 47.46003 11.48387 10980 ft 328 kts 84°
2026-05-06 18:16 47.46317 11.51638 10950 ft 311 kts 84°
2026-05-06 18:16 47.46627 11.54726 10970 ft 298 kts 84°
2026-05-06 18:17 47.46907 11.57692 10958 ft 285 kts 87°
2026-05-06 18:17 47.47086 11.60547 10904 ft 273 kts 88°
2026-05-06 18:17 47.47239 11.63326 10861 ft 270 kts 89°
2026-05-06 18:17 47.47370 11.66106 10955 ft 273 kts 89°
2026-05-06 18:18 47.47508 11.68910 10987 ft 273 kts 89°
2026-05-06 18:18 47.47643 11.71704 10977 ft 273 kts 89°
2026-05-06 18:18 47.47785 11.74519 10974 ft 275 kts 89°
2026-05-06 18:18 47.47929 11.77371 11007 ft 281 kts 89°
2026-05-06 18:19 47.48084 11.80268 10923 ft 285 kts 89°
2026-05-06 18:19 47.48252 11.83176 10710 ft 280 kts 89°
2026-05-06 18:19 47.48404 11.86019 10370 ft 276 kts 90°
2026-05-06 18:19 47.48546 11.88853 10088 ft 276 kts 92°
2026-05-06 18:20 47.48185 11.91544 9783 ft 265 kts 120°
2026-05-06 18:20 47.47397 11.93930 9600 ft 257 kts 122°
2026-05-06 18:20 47.46621 11.96217 9552 ft 240 kts 123°
2026-05-06 18:20 47.45893 11.98331 9557 ft 224 kts 123°
2026-05-06 18:21 47.45188 12.00364 9505 ft 221 kts 124°
2026-05-06 18:21 47.44442 12.02281 9500 ft 208 kts 139°
2026-05-06 18:21 47.43252 12.03202 9511 ft 189 kts 181°
2026-05-06 18:21 47.42082 12.02602 9504 ft 180 kts 224°
2026-05-06 18:22 47.41291 12.01176 9497 ft 180 kts 232°
2026-05-06 18:22 47.40548 11.99693 9467 ft 180 kts 233°
2026-05-06 18:22 47.39827 11.98195 9470 ft 178 kts 233°
2026-05-06 18:22 47.39114 11.96692 9506 ft 179 kts 233°
2026-05-06 18:23 47.38385 11.95182 9525 ft 182 kts 232°
2026-05-06 18:23 47.37634 11.93665 9505 ft 184 kts 231°
2026-05-06 18:23 47.36877 11.92152 9455 ft 183 kts 231°
2026-05-06 18:23 47.36110 11.90647 9466 ft 183 kts 230°
2026-05-06 18:24 47.35332 11.89157 9509 ft 184 kts 230°
2026-05-06 18:24 47.34538 11.87658 9525 ft 186 kts 229°
2026-05-06 18:24 47.33750 11.86130 9510 ft 189 kts 236°
2026-05-06 18:24 47.33217 11.84350 9494 ft 191 kts 245°
2026-05-06 18:25 47.32826 11.82476 9485 ft 192 kts 253°
2026-05-06 18:25 47.32579 11.80537 9468 ft 193 kts 255°
2026-05-06 18:25 47.32345 11.78545 9160 ft 200 kts 256°
2026-05-06 18:25 47.32072 11.76569 8790 ft 190 kts 255°
2026-05-06 18:26 47.31810 11.74644 8498 ft 192 kts 254°
2026-05-06 18:26 47.31511 11.72701 8165 ft 196 kts 254°
2026-05-06 18:26 47.31221 11.70739 7819 ft 195 kts 254°
2026-05-06 18:26 47.30940 11.68793 7462 ft 195 kts 253°
2026-05-06 18:27 47.30650 11.66846 7151 ft 194 kts 255°
2026-05-06 18:27 47.30358 11.64892 6834 ft 197 kts 256°
2026-05-06 18:27 47.30075 11.62911 6504 ft 198 kts 256°
2026-05-06 18:27 47.29795 11.60941 6201 ft 195 kts 257°
2026-05-06 18:28 47.29508 11.58998 5871 ft 192 kts 257°
2026-05-06 18:28 47.29219 11.57093 5541 ft 191 kts 256°
2026-05-06 18:28 47.28944 11.55178 5212 ft 192 kts 256°
2026-05-06 18:28 47.28674 11.53262 4887 ft 191 kts 255°
2026-05-06 18:29 47.28391 11.51343 4554 ft 189 kts 254°
2026-05-06 18:29 47.28121 11.49541 4263 ft 173 kts 255°
2026-05-06 18:29 47.27868 11.47817 3980 ft 168 kts 255°
2026-05-06 18:29 47.27631 11.46240 3724 ft 146 kts 256°
2026-05-06 18:30 47.27430 11.44849 3480 ft 133 kts 257°
2026-05-06 18:30 47.27304 11.43974 3334 ft 131 kts 256°
2026-05-06 18:30 47.27057 11.42237 3062 ft 129 kts 257°
2026-05-06 18:30 47.26934 11.41382 2892 ft 129 kts 256°
2026-05-06 18:31 47.26717 11.40101 2628 ft 132 kts 255°
2026-05-06 18:31 47.26524 11.38771 2384 ft 135 kts 250°
2026-05-06 18:31 47.26364 11.37388 2194 ft 138 kts 256°
2026-05-06 18:31 47.26151 11.35529 1927 ft 136 kts 257°
2026-05-06 18:32 47.26052 11.34644 1895 ft 124 kts 255°
2026-05-06 18:32 47.25958 11.33784 1903 ft 50 kts 259°
2026-05-06 18:32 47.25860 11.33741 1895 ft 14 kts 114°
2026-05-06 18:32 47.25815 11.33858 1895 ft 12 kts 122°
2026-05-06 18:33 47.25779 11.33956 1903 ft 14 kts 109°
2026-05-06 18:33 47.25775 11.34116 1902 ft 15 kts 81°
2026-05-06 18:33 47.25791 11.34256 1899 ft 15 kts 81°
2026-05-06 18:33 47.25811 11.34429 1891 ft 19 kts 81°
2026-05-06 18:34 47.25831 11.34609 1897 ft 15 kts 81°
2026-05-06 18:34 47.25839 11.34685 1903 ft 9 kts 81°
2026-05-06 18:34 47.25818 11.34745 1895 ft 7 kts 169°
2026-05-06 18:34 47.25799 11.34750 1903 ft 1 kts 169°
2026-05-06 18:35 47.25794 11.34751 1903 ft 1 kts 171°
2026-05-06 18:35 47.25792 11.34752 1901 ft 0 kts 171°